Flag for Germany Weather past 2 weeks in Eisenhüttenstadt, Brandenburg, Germany

Now
58 °F

Overcast.


Feels Like: 58 °F
Forecast: 52 / 59 °F
Wind: 3 mph from West

Location: Lindenberg

Current Time: Sep 21, 2014 at 10:37:37 PM

Latest Report: Sep 21, 2014 at 10:00 PM


Visibility: 25 mi

Pressure: 29.84 "Hg

Humidity: 86%

Dew point: 53 °F

Location of EisenhüttenstadtLocation

Historic Weather in Eisenhüttenstadt — Graph

°F

Eisenhüttenstadt temperature yesterday

Maximum temperature yesterday: 68 °F (at 3:00 PM)
Minimum temperature yesterday: 56 °F (at 8:00 AM)
Average temperature yesterday: 61 °F

Past Weeks' High & Low Weather Summary

 TemperatureHumidityPressure
High78 °F (Sep 7, 6:00 PM)100% (Sep 20, 1:00 AM)30.12 "Hg (Sep 20, 1:00 AM)
Low52 °F (Sep 11, 7:00 AM)45% (Sep 18, 4:00 PM)29.81 "Hg (Sep 21, 6:00 PM)
Average63 °F82%30.00 "Hg
* Reported Sep 6 9:00 PM — Sep 21 9:00 PM, Eisenhüttenstadt, Weather by CustomWeather, © 2014

Note: Actual official high and low records may vary slightly from our data, if they occured in-between our weather recording intervals... More about our weather records

Advertising

Eisenhüttenstadt weather history for previous 24 hours

 ConditionsComfort  
Time TempWeatherWind HumidityBarometerVisibility
9:00 PM
Sep 21
58 °FOvercast.3 mph83%29.84 "Hg31 mi
8:00 PM59 °FOvercast.5 mph81%29.83 "Hg31 mi
7:00 PM62 °FSprinkles. Overcast.6 mph76%29.82 "Hg16 mi
6:00 PM63 °FOvercast.5 mph82%29.81 "Hg9 mi
5:00 PM63 °FOvercast.5 mph87%29.81 "Hg12 mi
4:00 PM64 °FOvercast.6 mph84%29.83 "Hg12 mi
3:00 PM64 °FSprinkles. Overcast.5 mph85%29.83 "Hg6 mi
2:00 PM64 °FFog.5 mph88%29.84 "Hg4 mi
1:00 PM64 °FFog.5 mph88%29.85 "Hg4 mi
12:00 PM63 °FFog.3 mph92%29.85 "Hg3 mi
10:00 AM61 °FFog.3 mph96%29.85 "Hg2 mi
9:00 AM60 °FFog.3 mph99%29.84 "Hg2 mi
8:00 AM60 °FFog.3 mph99%29.85 "Hg1 mi
7:00 AM60 °FFog.3 mph100%29.84 "Hg1 mi
6:00 AM60 °FFog.5 mph100%29.84 "Hg1 mi
4:00 AM61 °FFog.1 mph100%29.85 "Hg0 mi
3:00 AM60 °FFog.2 mph100%29.86 "Hg0 mi
2:00 AM60 °FFog.2 mph100%29.87 "Hg0 mi
1:00 AM60 °FFog.2 mph100%29.87 "Hg0 mi
12:00 AM61 °FFog.2 mph100%29.88 "Hg1 mi
10:00 PM
Sep 20
62 °FFog.2 mph99%29.88 "Hg2 mi
Weather by CustomWeather, © 2014

See weather overviewHow to use our weather pages